• En España
  • Lista de países
  • Para 7 días
  • Temperatura del agua
  • Mapa Satelital
  • El tiempo en el mapa
  • Informadores
  • user-avatar
    Iniciar sesión

    Tiempo cada hora Ishtyra

    Hoy, 21 Agosto, Martes

    Tiempo Temperatura Precipitaciones Viento Presión Humedad
    00:00 +16°C° 0,1 mm 2 mps 745 mmHg 94%
    01:00 +16°C° 0,1 mm 2 mps 745 mmHg 95%
    02:00 +16°C° 0,1 mm 2 mps 745 mmHg 95%
    03:00 +16°C° 0 mm 2 mps 744 mmHg 96%
    04:00 +17°C° 0,2 mm 2 mps 744 mmHg 96%
    05:00 +17°C° 0,2 mm 2 mps 744 mmHg 96%
    06:00 +17°C° 0,2 mm 2 mps 744 mmHg 95%
    07:00 +18°C° 0,3 mm 2 mps 744 mmHg 91%
    08:00 +19°C° 0,3 mm 3 mps 744 mmHg 86%
    09:00 +21°C° 0 mm 3 mps 744 mmHg 81%
    10:00 +21°C° 0,3 mm 3 mps 744 mmHg 77%
    11:00 +22°C° 0,3 mm 3 mps 744 mmHg 74%
    12:00 +23°C° 0,3 mm 4 mps 744 mmHg 70%
    13:00 +25°C° 0,2 mm 4 mps 743 mmHg 67%
    14:00 +25°C° 0,2 mm 4 mps 743 mmHg 65%
    15:00 +26°C° 0 mm 4 mps 742 mmHg 63%
    16:00 +25°C° 0,3 mm 4 mps 742 mmHg 67%
    17:00 +23°C° 0,3 mm 4 mps 741 mmHg 71%
    18:00 +23°C° 0,3 mm 4 mps 741 mmHg 75%
    19:00 +21°C° 0,1 mm 4 mps 740 mmHg 77%
    20:00 +20°C° 0,1 mm 4 mps 740 mmHg 80%
    21:00 +19°C° 0,1 mm 4 mps 739 mmHg 82%
    22:00 +19°C° 0,6 mm 4 mps 739 mmHg 85%
    23:00 +19°C° 0,6 mm 5 mps 739 mmHg 88%

    Mañana, 22 Agosto, Miércoles

    Tiempo Temperatura Precipitaciones Viento Presión Humedad
    00:00 +19°C° 0,6 mm 5 mps 738 mmHg 91%
    01:00 +17°C° 0,5 mm 5 mps 738 mmHg 92%
    02:00 +17°C° 0,5 mm 5 mps 738 mmHg 93%
    03:00 +17°C° 0,5 mm 5 mps 738 mmHg 95%
    04:00 +17°C° 0,5 mm 4 mps 738 mmHg 94%
    05:00 +17°C° 0,5 mm 4 mps 739 mmHg 94%
    06:00 +15°C° 0,5 mm 4 mps 739 mmHg 93%
    07:00 +15°C° 0 mm 4 mps 739 mmHg 88%
    08:00 +15°C° 0 mm 4 mps 739 mmHg 83%
    09:00 +15°C° 0 mm 4 mps 740 mmHg 78%
    10:00 +17°C° 0 mm 4 mps 740 mmHg 72%
    11:00 +18°C° 0 mm 4 mps 740 mmHg 66%
    12:00 +18°C° 0 mm 4 mps 740 mmHg 59%
    13:00 +19°C° 0 mm 5 mps 740 mmHg 58%
    14:00 +19°C° 0 mm 5 mps 741 mmHg 56%
    15:00 +20°C° 0 mm 5 mps 741 mmHg 54%
    16:00 +19°C° 0,1 mm 4 mps 741 mmHg 61%
    17:00 +17°C° 0,1 mm 4 mps 741 mmHg 68%
    18:00 +15°C° 0,1 mm 4 mps 742 mmHg 75%
    19:00 +14°C° 0 mm 4 mps 742 mmHg 79%
    20:00 +13°C° 0 mm 4 mps 742 mmHg 83%
    21:00 +11°C° 0 mm 4 mps 743 mmHg 87%
    22:00 +11°C° 0 mm 3 mps 743 mmHg 88%
    23:00 +10°C° 0 mm 3 mps 744 mmHg 89%

    Pasado mañana, 23 Agosto, Jueves

    Tiempo Temperatura Precipitaciones Viento Presión Humedad
    00:00 +10°C° 0 mm 3 mps 744 mmHg 91%
    01:00 +9°C° 0 mm 3 mps 744 mmHg 92%
    02:00 +9°C° 0 mm 3 mps 745 mmHg 93%
    03:00 +8°C° 0 mm 3 mps 745 mmHg 94%
    04:00 +8°C° 0 mm 4 mps 745 mmHg 91%
    05:00 +8°C° 0 mm 4 mps 746 mmHg 89%
    06:00 +8°C° 0 mm 5 mps 746 mmHg 86%
    07:00 +9°C° 0 mm 5 mps 746 mmHg 78%
    08:00 +10°C° 0 mm 6 mps 747 mmHg 71%
    09:00 +11°C° 0 mm 6 mps 747 mmHg 64%
    10:00 +12°C° 0 mm 7 mps 747 mmHg 61%
    11:00 +14°C° 0 mm 7 mps 747 mmHg 58%
    12:00 +15°C° 0 mm 7 mps 747 mmHg 55%
    13:00 +15°C° 0 mm 7 mps 747 mmHg 54%
    14:00 +15°C° 0 mm 7 mps 747 mmHg 54%
    15:00 +16°C° 0 mm 7 mps 747 mmHg 54%
    16:00 +15°C° 0 mm 5 mps 747 mmHg 58%
    17:00 +15°C° 0 mm 4 mps 748 mmHg 62%
    18:00 +14°C° 0 mm 3 mps 748 mmHg 67%
    19:00 +13°C° 0 mm 3 mps 748 mmHg 68%
    20:00 +13°C° 0 mm 3 mps 748 mmHg 69%
    21:00 +12°C° 0 mm 3 mps 748 mmHg 71%
    22:00 +12°C° 0 mm 3 mps 748 mmHg 71%
    23:00 +12°C° 0 mm 3 mps 749 mmHg 71%

    24 Agosto, Viernes

    Tiempo Temperatura Precipitaciones Viento Presión Humedad
    00:00 +12°C° 0 mm 3 mps 749 mmHg 71%
    01:00 +11°C° 0 mm 3 mps 749 mmHg 72%
    02:00 +11°C° 0 mm 3 mps 749 mmHg 74%
    03:00 +11°C° 0 mm 3 mps 749 mmHg 75%
    04:00 +11°C° 0,1 mm 3 mps 749 mmHg 79%
    05:00 +11°C° 0,1 mm 3 mps 748 mmHg 82%
    06:00 +11°C° 0,1 mm 3 mps 748 mmHg 85%
    07:00 +12°C° 0,1 mm 3 mps 748 mmHg 85%
    08:00 +12°C° 0,1 mm 4 mps 748 mmHg 86%
    09:00 +13°C° 0,1 mm 4 mps 748 mmHg 87%
    10:00 +14°C° 0,2 mm 4 mps 748 mmHg 85%
    11:00 +15°C° 0,2 mm 4 mps 748 mmHg 84%
    12:00 +15°C° 0,2 mm 4 mps 748 mmHg 83%
    13:00 +17°C° 0 mm 4 mps 748 mmHg 82%
    14:00 +17°C° 0 mm 3 mps 748 mmHg 82%
    15:00 +18°C° 0 mm 3 mps 748 mmHg 82%
    16:00 +18°C° 0 mm 3 mps 748 mmHg 84%
    17:00 +18°C° 0 mm 2 mps 748 mmHg 85%
    18:00 +18°C° 0 mm 2 mps 748 mmHg 86%
    19:00 +18°C° 0 mm 1 mps 749 mmHg 89%
    20:00 +16°C° 0 mm 1 mps 749 mmHg 91%
    21:00 +15°C° 0 mm 1 mps 749 mmHg 93%
    22:00 +15°C° 0 mm 1 mps 749 mmHg 94%
    23:00 +14°C° 0 mm 1 mps 749 mmHg 94%

    25 Agosto, Sábado

    Tiempo Temperatura Precipitaciones Viento Presión Humedad
    00:00 +14°C° 0 mm 1 mps 750 mmHg 95%
    01:00 +13°C° 0 mm 1 mps 750 mmHg 95%
    02:00 +13°C° 0 mm 1 mps 750 mmHg 96%
    03:00 +13°C° 0 mm 1 mps 750 mmHg 96%
    04:00 +13°C° 0 mm 1 mps 751 mmHg 95%
    05:00 +14°C° 0 mm 1 mps 751 mmHg 95%
    06:00 +14°C° 0 mm 1 mps 751 mmHg 94%
    07:00 +16°C° 0 mm 1 mps 751 mmHg 88%
    08:00 +18°C° 0 mm 1 mps 752 mmHg 81%
    09:00 +20°C° 0 mm 1 mps 752 mmHg 75%
    10:00 +21°C° 0 mm 1 mps 752 mmHg 70%
    11:00 +22°C° 0 mm 1 mps 752 mmHg 66%
    12:00 +23°C° 0 mm 1 mps 752 mmHg 62%
    13:00 +23°C° 0 mm 1 mps 752 mmHg 61%
    14:00 +23°C° 0 mm 1 mps 752 mmHg 61%
    15:00 +24°C° 0 mm 1 mps 752 mmHg 61%
    16:00 +23°C° 0 mm 1 mps 752 mmHg 65%
    17:00 +22°C° 0 mm 1 mps 752 mmHg 69%
    18:00 +21°C° 0 mm 1 mps 752 mmHg 74%
    19:00 +20°C° 0 mm 1 mps 752 mmHg 77%
    20:00 +19°C° 0 mm 1 mps 752 mmHg 80%
    21:00 +16°C° 0 mm 1 mps 752 mmHg 83%
    22:00 +16°C° 0 mm 1 mps 752 mmHg 85%
    23:00 +15°C° 0 mm 1 mps 752 mmHg 87%

    26 Agosto, Domingo

    Tiempo Temperatura Precipitaciones Viento Presión Humedad
    00:00 +15°C° 0 mm 1 mps 752 mmHg 89%
    01:00 +15°C° 0 mm 1 mps 753 mmHg 89%
    02:00 +15°C° 0 mm 1 mps 753 mmHg 90%
    03:00 +14°C° 0 mm 1 mps 753 mmHg 91%
    04:00 +15°C° 0 mm 1 mps 753 mmHg 91%
    05:00 +16°C° 0 mm 1 mps 753 mmHg 90%
    06:00 +16°C° 0 mm 1 mps 753 mmHg 89%
    07:00 +19°C° 0 mm 1 mps 753 mmHg 84%
    08:00 +21°C° 0 mm 1 mps 753 mmHg 78%
    09:00 +22°C° 0 mm 1 mps 753 mmHg 73%
    10:00 +23°C° 0 mm 1 mps 753 mmHg 69%
    11:00 +25°C° 0 mm 1 mps 753 mmHg 65%
    12:00 +26°C° 0 mm 1 mps 753 mmHg 60%
    13:00 +26°C° 0,1 mm 1 mps 753 mmHg 60%
    14:00 +26°C° 0,1 mm 1 mps 752 mmHg 59%
    15:00 +26°C° 0,1 mm 1 mps 752 mmHg 58%
    16:00 +25°C° 0 mm 1 mps 752 mmHg 64%
    17:00 +24°C° 0 mm 1 mps 752 mmHg 69%
    18:00 +23°C° 0 mm 1 mps 752 mmHg 74%
    19:00 +22°C° 0 mm 1 mps 752 mmHg 77%
    20:00 +21°C° 0 mm 1 mps 752 mmHg 81%
    21:00 +19°C° 0 mm 1 mps 752 mmHg 85%
    22:00 +19°C° 0 mm 1 mps 752 mmHg 86%
    23:00 +19°C° 0 mm 1 mps 752 mmHg 87%
    Mostrar más